GW0876 Weather Reports


time (UTC)temp
C
wind
direction
speed
KPH
gust
KPH
rain 1hr
cm
rain 24hr
cm
rain mn
cm
humidity
%
barometer
mb
20260506120734 26 282 3.2 12.9 0.00 0.00 0.00 38 1007.0
20260506115732 26 256 1.6 22.5 0.00 0.00 0.00 39 1007.3
20260506115654 25 305 3.2 16.1 0.00 0.00 0.00 39 1007.4
20260506114220 26 280 6.4 16.1 0.00 0.00 0.00 38 1007.4
20260506112732 26 303 3.2 17.7 0.00 0.00 0.00 39 1007.3
20260506111732 26 280 3.2 17.7 0.00 0.00 0.00 38 1007.4
20260506110733 25 290 4.8 14.5 0.00 0.00 0.00 39 1007.3
20260506105732 27 128 3.2 12.9 0.00 0.00 0.00 38 1007.4
20260506105133 25 304 0.0 12.9 0.00 0.00 0.00 37 1007.0
20260506104916 26 253 3.2 12.9 0.00 0.00 0.00 39 1007.2
20260506102732 26 285 6.4 17.7 0.00 0.00 0.00 37 1007.2
20260506101732 25 302 1.6 14.5 0.00 0.00 0.00 36 1007.3
20260506100734 24 287 6.4 17.7 0.00 0.00 0.00 37 1007.2
20260506100212 25 281 14.5 14.5 0.00 0.00 0.00 36 1007.2
20260506095215 24 276 3.2 16.1 0.00 0.00 0.00 38 1007.1
20260506093734 25 326 3.2 12.9 0.00 0.00 0.00 38 1006.8
20260506092732 25 286 11.3 17.7 0.00 0.00 0.00 38 1007.2
20260506091733 24 260 3.2 20.9 0.00 0.00 0.00 37 1007.2
20260506090734 24 276 9.7 11.3 0.00 0.00 0.00 37 1007.1
20260506085733 23 149 3.2 14.5 0.00 0.00 0.00 38 1007.1
20260506084733 23 81 3.2 16.1 0.00 0.00 0.00 39 1007.0
20260506083733 23 320 4.8 14.5 0.00 0.00 0.00 40 1007.0
20260506082733 22 276 6.4 16.1 0.00 0.00 0.00 40 1007.1
20260506081732 22 89 3.2 12.9 0.00 0.00 0.00 41 1006.9
20260506081221 22 292 3.2 12.9 0.00 0.00 0.00 42 1007.0
20260506072732 21 327 1.6 16.1 0.00 0.00 0.00 43 1006.8
20260506071733 21 340 3.2 14.5 0.00 0.00 0.00 43 1007.0
20260506071213 21 312 3.2 17.7 0.00 0.00 0.00 44 1006.9
20260506061733 19 292 8.0 16.1 0.00 0.00 0.00 49 1006.7
20260506060734 19 265 4.8 9.7 0.00 0.00 0.00 50 1006.4
20260506050747 15 88 1.6 6.4 0.00 0.00 0.00 56 1006.6
20260506044732 15 91 4.8 6.4 0.00 0.00 0.00 54 1006.7
20260506043733 15 217 0.0 6.4 0.00 0.00 0.00 53 1006.9
20260506042732 15 82 3.2 6.4 0.00 0.00 0.00 52 1006.9
20260506041732 15 125 3.2 6.4 0.00 0.00 0.00 51 1006.8
20260506041214 15 89 3.2 4.8 0.00 0.00 0.00 51 1007.1
20260506035732 15 125 3.2 8.0 0.00 0.00 0.00 51 1006.8
20260506034732 15 39 4.8 8.0 0.00 0.00 0.00 51 1007.0
20260506033734 15 81 1.6 6.4 0.00 0.00 0.00 50 1006.9
20260506032732 15 95 1.6 8.0 0.00 0.00 0.00 51 1007.0
20260506031732 15 51 3.2 6.4 0.00 0.00 0.00 51 1007.0
20260506030734 15 332 4.8 6.4 0.00 0.00 0.00 51 1007.0
20260506025733 15 37 1.6 6.4 0.00 0.00 0.00 50 1007.2
20260506024732 15 149 3.2 6.4 0.00 0.00 0.00 50 1006.9
20260506024217 15 64 0.0 6.4 0.00 0.00 0.00 50 1007.0
20260506022732 15 27 4.8 8.0 0.00 0.00 0.00 49 1007.3
20260506021732 15 91 3.2 6.4 0.00 0.00 0.00 50 1007.1
20260506020733 15 177 3.2 6.4 0.00 0.00 0.00 50 1007.1
20260506015732 15 332 1.6 6.4 0.00 0.00 0.00 51 1007.2
20260506015236 15 91 0.0 6.4 0.00 0.00 0.00 50 1007.3
20260506013733 15 74 1.6 9.7 0.00 0.00 0.00 50 1007.3
20260506012732 14 347 3.2 6.4 0.00 0.00 0.00 53 1007.4
20260506012643 13 272 0.0 4.8 0.00 0.00 0.00 57 1007.2
20260506010734 13 107 0.0 3.2 0.00 0.00 0.00 57 1007.3
20260506005732 13 129 0.0 1.6 0.00 0.00 0.00 59 1007.4
20260506005214 13 124 0.0 3.2 0.00 0.00 0.00 58 1007.4
20260506003733 14 103 0.0 0.0 0.00 0.00 0.00 58 1007.4
20260506002733 14 124 0.0 0.0 0.00 0.00 0.00 58 1007.3
20260506001732 14 304 0.0 0.0 0.00 0.00 0.00 57 1007.4
20260506000733 14 62 0.0 0.0 0.00 0.00 0.00 56 1007.3
20260505235732 15 62 0.0 0.0 0.00 0.00 0.00 54 1007.4
20260505234732 15 315 0.0 0.0 0.00 0.00 0.00 52 1007.4
20260505233733 15 62 0.0 0.0 0.00 0.00 0.00 50 1007.5
20260505232733 15 129 0.0 0.0 0.00 0.00 0.00 49 1007.6
20260505231732 16 293 0.0 0.0 0.00 0.00 0.00 50 1007.4
20260505230746 16 230 0.0 0.0 0.00 0.00 0.00 48 1007.6
20260505230206 16 309 0.0 1.6 0.00 0.00 0.00 46 1007.7
20260505224732 17 22 0.0 3.2 0.00 0.00 0.00 46 1007.7
20260505224645 17 50 0.0 6.4 0.00 0.00 0.00 44 1007.9
20260505222732 17 94 0.0 4.8 0.00 0.00 0.00 44 1007.8
20260505221732 17 44 0.0 3.2 0.00 0.00 0.00 44 1007.8
20260505220734 18 311 0.0 3.2 0.00 0.00 0.00 43 1007.8
20260505215733 18 44 0.0 6.4 0.00 0.00 0.00 43 1008.0
20260505214732 18 269 3.2 6.4 0.00 0.00 0.00 43 1008.1
20260505213734 18 277 0.0 6.4 0.00 0.00 0.00 43 1008.1
20260505212731 18 75 1.6 9.7 0.00 0.00 0.00 43 1008.0
20260505211733 18 268 0.0 3.2 0.00 0.00 0.00 43 1008.1
20260505211236 18 103 0.0 4.8 0.00 0.00 0.00 43 1008.1
20260505205732 18 273 1.6 4.8 0.00 0.00 0.00 43 1008.1
20260505205218 18 277 3.2 4.8 0.00 0.00 0.00 43 1007.9
20260505203734 18 13 0.0 3.2 0.00 0.00 0.00 43 1008.1
20260505203217 18 269 0.0 3.2 0.00 0.00 0.00 43 1008.1
20260505201733 19 91 3.2 3.2 0.00 0.00 0.00 42 1008.0
20260505200733 19 289 1.6 6.4 0.00 0.00 0.00 42 1008.2
20260505195732 19 298 1.6 4.8 0.00 0.00 0.00 41 1008.0
20260505194733 20 278 3.2 6.4 0.00 0.00 0.00 41 1008.2
20260505193733 20 350 0.0 6.4 0.00 0.00 0.00 40 1007.8
20260505192731 20 302 4.8 6.4 0.00 0.00 0.00 40 1008.0
20260505192215 20 111 4.8 4.8 0.00 0.00 0.00 39 1007.8
20260505190733 20 280 4.8 6.4 0.00 0.00 0.00 38 1007.7
20260505185732 21 353 0.0 6.4 0.00 0.00 0.00 37 1007.6
20260505184732 21 159 3.2 6.4 0.00 0.00 0.00 37 1007.7
20260505183733 21 44 0.0 6.4 0.00 0.00 0.00 36 1007.6
20260505182732 21 106 0.0 6.4 0.00 0.00 0.00 36 1007.6
20260505181732 21 348 3.2 6.4 0.00 0.00 0.00 36 1007.5
20260505180734 22 97 1.6 6.4 0.00 0.00 0.00 36 1007.6
20260505175732 22 6 1.6 6.4 0.00 0.00 0.00 35 1007.3
20260505174733 22 242 1.6 9.7 0.00 0.00 0.00 35 1007.3
20260505173734 23 84 3.2 8.0 0.00 0.00 0.00 34 1007.3
20260505172732 23 281 0.0 6.4 0.00 0.00 0.00 33 1007.4
20260505172223 23 130 3.2 6.4 0.00 0.00 0.00 33 1007.3
20260505170733 24 269 0.0 6.4 0.00 0.00 0.00 31 1007.4
20260505170647 24 279 3.2 8.0 0.00 0.00 0.00 30 1007.3
20260505164732 25 275 8.0 12.9 0.00 0.00 0.00 29 1007.3
20260505163735 25 289 4.8 12.9 0.00 0.00 0.00 30 1007.4
20260505163216 25 98 3.2 9.7 0.00 0.00 0.00 30 1007.5
20260505161731 25 275 6.4 6.4 0.00 0.00 0.00 29 1007.4
20260505161702 25 85 3.2 9.7 0.00 0.00 0.00 28 1007.5
20260505153234 26 328 3.2 9.7 0.00 0.00 0.00 25 1007.5
20260505151731 27 118 4.8 9.7 0.00 0.00 0.00 25 1007.5
20260505151217 27 298 1.6 14.5 0.00 0.00 0.00 24 1007.6
20260505124732 27 71 3.2 11.3 0.00 0.00 0.00 25 1009.3
20260505123734 27 292 6.4 9.7 0.00 0.00 0.00 26 1009.3
20260505122733 27 277 3.2 9.7 0.00 0.00 0.00 25 1009.5
20260505121733 27 26 3.2 14.5 0.00 0.00 0.00 25 1009.4